Volver al catálogo

FENGYUN 1C DEB

ActivoSSO
NORAD 29788·DEBRIS·🇨🇳 China

Lanzado May 10, 1999 desde Taiyuan Satellite Launch Center

Loading…

Próximos Pases (próximas 24 horas)

TLE

ActualizadoSource: Space-Track

Época: Sep 14, 2026, 03:29 UTC

1 29788U 99025CE  26257.14552212  .00002149  00000-0  88089-3 0  9995
2 29788  98.7681 334.5609 0042339 109.9674 279.1159 14.27703756 12843

Sigue FENGYUN 1C DEB en tiempo real con AllMySat

Download on the App Store